SWARM A (39452 NORAD) Tracking and Keplerian Element Data

This shows tracking and keplerian element data for the satellite.

Feedback or suggestion? Click here.




ElementValue
Catalog39452
NameSWARM A
Epoch Orbit49756
Epoch Day270.1824809
Epoch Year2022
RAAN188.2084
Inclination87.3676
Eccentricity0.000342
Argument of Perigee77.1014
Mean Anonmoly283.062
Mean Motion15.33157678
Decay Rate5.005E-05
L11 39452U 13067B 22270.18248090 .00005005 00000+0 15520-3 0 9990
L22 39452 87.3676 188.2084 0003420 77.1014 283.0620 15.33157678497560

Live tracking and technical data element details for SWARM A (NORAD 39452). SWARM A can be tracked NOW for your location showing map with azimuth and elevation plus other details from your city location.

Track the satellite on the map from your city or location and see movement details for azimuth, elevation, latitude, longitude, range, height, and movement on the map or in text.







IsCatalogInMostPopularTable: catalog: 39452, numindb: 612
Update: records affected: 1



GetName: 39452 SWARM A

Hit Count: updated at: Fri, 30 Sep 2022 03:59:48 GMT